LZ2SMX-2 Weather Reports


time (UTC)temp
F
wind
direction
speed
knots
gust
knots
rain 1hr
in
rain 24hr
in
rain mn
in
humidity
%
barometer
mb
20260508063307 55 315 0.0 0.9 0.00 0.00 0.00 99 991.0
20260508061306 55 315 0.0 0.0 0.00 0.00 0.00 99 992.0
20260508055307 53 112 0.0 0.9 0.00 0.00 0.00 99 992.0
20260508053306 53 112 0.0 1.7 0.00 0.00 0.00 99 992.0
20260508051308 51 112 0.0 1.7 0.00 0.00 0.00 99 991.0
20260508045307 51 112 0.0 0.0 0.00 0.00 0.00 99 992.0
20260508043307 51 112 0.0 0.0 0.00 0.00 0.00 99 991.0
20260508041307 51 112 0.0 0.0 0.00 0.00 0.00 99 991.0
20260508035307 50 112 0.0 0.0 0.00 0.00 0.00 99 991.0
20260508033307 50 135 0.0 0.0 0.00 0.00 0.00 99 991.0
20260508031307 50 112 0.0 0.0 0.00 0.00 0.00 99 991.0
20260508025307 50 112 0.0 0.0 0.00 0.00 0.00 99 991.0
20260508023306 50 112 0.0 0.0 0.00 0.00 0.00 99 991.0
20260508021306 50 112 0.0 0.9 0.00 0.00 0.00 99 990.0
20260508015341 50 135 0.0 0.9 0.00 0.00 0.00 99 991.0
20260508015306 50 135 0.0 0.9 0.00 0.00 0.00 99 991.0
20260508013307 50 112 0.0 0.9 0.00 0.00 0.00 99 991.0
20260508011306 50 112 0.0 0.0 0.00 0.00 0.00 99 991.0
20260508005308 50 112 0.0 0.0 0.00 0.00 0.00 99 991.0
20260508003307 50 135 0.0 0.0 0.00 0.00 0.00 99 991.0
20260508001355 50 112 0.0 0.9 0.00 0.00 0.00 99 991.0
20260508001307 50 112 0.0 0.9 0.00 0.00 0.00 99 991.0
20260507235359 50 112 0.0 0.9 0.00 0.00 0.00 99 991.0
20260507235307 50 112 0.0 0.9 0.00 0.00 0.00 99 991.0
20260507233307 50 112 0.0 1.7 0.00 0.00 0.00 99 991.0
20260507231307 50 112 0.0 0.9 0.00 0.00 0.00 99 991.0
20260507225307 50 112 0.0 0.9 0.00 0.00 0.00 99 991.0
20260507223307 50 135 0.9 1.7 0.00 0.00 0.00 99 992.0
20260507221341 50 135 0.9 1.7 0.00 0.00 0.00 99 991.0
20260507221307 50 135 0.9 1.7 0.00 0.00 0.00 99 991.0
20260507220049 50 135 0.0 1.7 0.00 0.00 0.00 99 992.0
20260507215307 50 135 0.0 1.7 0.00 0.00 0.00 99 992.0
20260507213306 50 135 0.0 1.7 0.00 0.00 0.00 99 992.0
20260507205307 50 135 0.0 0.9 0.00 0.00 0.00 99 992.0
20260507203307 50 135 0.0 1.7 0.00 0.00 0.00 99 992.0
20260507201306 50 112 0.9 1.7 0.00 0.00 0.00 99 992.0
20260507195309 50 112 0.9 2.6 0.00 0.00 0.00 99 992.0
20260507193308 50 112 1.7 3.5 0.00 0.00 0.00 99 992.0
20260507191348 50 112 1.7 1.7 0.00 0.00 0.00 99 992.0
20260507191307 50 112 1.7 1.7 0.00 0.00 0.00 99 992.0
20260507185307 50 112 1.7 3.5 0.00 0.00 0.00 99 992.0
20260507183307 50 112 0.9 1.7 0.00 0.00 0.00 99 992.0
20260507181306 50 112 1.7 2.6 0.00 0.00 0.00 99 992.0
20260507175351 50 112 1.7 3.5 0.00 0.00 0.00 98 992.0
20260507175307 50 112 1.7 3.5 0.00 0.00 0.00 98 992.0
20260507173307 51 112 1.7 3.5 0.00 0.00 0.00 98 992.0
20260507171309 51 112 1.7 2.6 0.00 0.00 0.00 95 991.0
20260507165307 51 112 1.7 4.3 0.00 0.00 0.00 93 991.0
20260507163307 53 112 1.7 3.5 0.00 0.00 0.00 91 991.0
20260507161308 53 135 2.6 4.3 0.00 0.00 0.00 86 991.0
20260507155307 55 112 2.6 4.3 0.00 0.00 0.00 83 991.0
20260507153344 57 112 3.5 6.1 0.00 0.00 0.00 82 991.0
20260507153307 57 112 3.5 6.1 0.00 0.00 0.00 82 991.0
20260507151307 57 90 3.5 5.2 0.00 0.00 0.00 79 991.0
20260507145307 59 135 3.5 6.1 0.00 0.00 0.00 79 991.0
20260507143307 59 135 2.6 5.2 0.00 0.00 0.00 78 992.0
20260507141307 59 135 3.5 8.7 0.00 0.00 0.00 75 991.0
20260507135314 60 135 2.6 5.2 0.00 0.00 0.00 73 992.0
20260507135307 60 135 2.6 5.2 0.00 0.00 0.00 73 992.0
20260507133308 59 112 3.5 7.0 0.00 0.00 0.00 74 992.0
20260507131426 60 112 3.5 5.2 0.00 0.00 0.00 71 992.0
20260507131309 60 112 3.5 5.2 0.00 0.00 0.00 71 992.0
20260507125308 62 112 3.5 7.0 0.00 0.00 0.00 71 992.0
20260507123307 62 112 3.5 4.3 0.00 0.00 0.00 72 992.0
20260507121306 62 112 3.5 7.0 0.00 0.00 0.00 68 991.0
20260507115307 62 112 5.2 8.7 0.00 0.00 0.00 68 991.0
20260507113307 62 112 4.3 7.8 0.00 0.00 0.00 69 991.0
20260507111308 64 112 4.3 7.0 0.00 0.00 0.00 69 992.0
20260507105307 62 112 3.5 7.0 0.00 0.00 0.00 69 992.0
20260507103308 60 112 2.6 5.2 0.00 0.00 0.00 72 992.0
20260507101307 64 135 5.2 7.8 0.00 0.00 0.00 68 992.0
20260507095308 64 135 2.6 4.3 0.00 0.00 0.00 68 991.0
20260507093307 64 135 1.7 6.1 0.00 0.00 0.00 67 992.0
20260507091307 62 112 3.5 5.2 0.00 0.00 0.00 71 992.0
20260507085307 60 112 3.5 6.1 0.00 0.00 0.00 73 992.0
20260507083307 62 112 2.6 3.5 0.00 0.00 0.00 72 992.0
20260507081307 62 135 1.7 3.5 0.00 0.00 0.00 70 992.0
20260507075307 62 135 2.6 5.2 0.00 0.00 0.00 72 992.0
20260507073307 62 112 1.7 3.5 0.00 0.00 0.00 70 992.0
20260507071306 62 112 1.7 4.3 0.00 0.00 0.00 75 992.0
20260507065307 60 135 1.7 2.6 0.00 0.00 0.00 72 991.0